Regional Weather Roundup
Issued by NWS

Home | Current Version | Previous Version | Graphics & Text | Print | Product List | Glossary On
Versions: 1 2 3 4 5 6 7 8 9 10 11 12 13 14 15 16 17 18 19 20 21 22 23 24 25 26 27 28 29 30 31 32 33 34 35 36 37 38 39 40 41 42 43 44 45 46 47 48 49 50
108
ASUS45 KCYS 120110
RWRWY

WYOMING REGIONAL WEATHER ROUNDUP
NATIONAL WEATHER SERVICE CHEYENNE WY
600 PM MST THU FEB 11 2016

NOTE:  "FAIR" INDICATES FEW OR NO CLOUDS BELOW 12,000 FEET
WITH NO SIGNIFICANT WEATHER AND/OR OBSTRUCTIONS TO VISIBILITY.

WYZ001-120200-
YELLOWSTONE NATIONAL PARK

CITY           SKY/WX    TMP DP  RH WIND       PRES   REMARKS
LK YELLOWSTONE   N/A     34  21  59 VRB5      30.36R WCI  30
W YELLOWSTONE  NOT AVBL

$$
WYZ002>013-054>058-071-098>099-120200-
NORTHERN WYOMING

CITY           SKY/WX    TMP DP  RH WIND       PRES   REMARKS
JACKSON        PTCLDY    32  27  80 CALM      30.34R
CODY           FAIR      50  18  27 CALM      30.21S
GREYBULL       FAIR      53  20  27 NW9       30.18R
WORLAND        FAIR      42  27  55 S6        30.20R
SHERIDAN       FAIR      45  24  43 NW10      30.18R
BUFFALO        FAIR      43  23  45 NW6       30.20R
GILLETTE       FAIR      43  26  51 NW9       30.17R
HULETT         FAIR      43  30  61 N9        30.18R
NEWCASTLE      FAIR      43  23  45 NW10      30.16R

$$
WYZ014>020-022>026-101>103-120200-
CENTRAL WYOMING

CITY           SKY/WX    TMP DP  RH WIND       PRES   REMARKS
BIG PINEY      FAIR      36  26  67 CALM      30.34R
PINEDALE         N/A     34  25  69 CALM      30.35R
DUBOIS         CLOUDY    41  21  45 NW15      30.29R
LANDER         FAIR      42  24  49 SW9       30.23R
RIVERTON       FAIR      42  25  50 E7        30.25R
CASPER         FAIR      37  26  64 SW10      30.24R WCI  30
DOUGLAS        FAIR      38  27  64 W9        30.23R WCI  31

$$
WYZ021-027>030-104>119-120200-
SOUTHERN WYOMING

CITY           SKY/WX    TMP DP  RH WIND       PRES   REMARKS
EVANSTON       FAIR      39  19  44 SW9       30.39S WCI  33
KEMMERER       FAIR      34  19  55 NW7       30.38S WCI  28
FORT BRIDGER   CLEAR     41  23  48 W17       30.40S
ROCK SPRINGS   FAIR      39  22  50 W16       30.34S WCI  30
DIXON          FAIR      30  19  63 NE7       30.40R WCI  23
RAWLINS        FAIR      37  22  54 W14       30.30R WCI  28
SARATOGA       FAIR      36  25  64 CALM      30.33S
LARAMIE        CLOUDY    42  23  46 W17       30.26R
CHEYENNE       FAIR      45  24  43 N15G25    30.21R
TORRINGTON     FAIR      47  26  44 NW13      30.18R
PINE BLUFFS    FAIR      43  25  49 NW12      30.22R

$$




USA.gov is the U.S. government's official web portal to all federal, state and local government web resources and services.